Weather History for Elefsis, Greece

Change the Weather History Date:

Sunday, August 25, 2013

  Actual Average Record
Temperature  
Mean Temperature 81 °F -  
Max Temperature 93 °F 82 °F 100 °F (2008)
Min Temperature 69 °F 65 °F 62 °F (1997)
Cooling Degree Days 16    
Growing Degree Days 31 (Base 50)    
Moisture  
Dew Point 54 °F    
Average Humidity 38    
Maximum Humidity 57    
Minimum Humidity 24    
Precipitation  
Precipitation 0.00 in - - ()
Sea Level Pressure  
Sea Level Pressure 29.85 in    
Wind  
Wind Speed 4 mph ()    
Max Wind Speed 13 mph    
Max Gust Speed -    
Visibility 6.2 miles    
Events      
Averages and records for this station are not official NWS values.
T = Trace of Precipitation, MM = Missing Value Source: Averaged Metar Reports

Daily Weather History Graph

Daily Weather History Graph

Search for Another Location

Airport:

Trip Planner

Search our weather history database for the weather conditions in past years. The results will help you decide how hot, cold, wet, or windy it might be!

Date:

Astronomy

Aug. 25, 2013 Rise Set
Actual Time 6:49 AM EEST 8:05 PM EEST
Civil Twilight 6:22 AM EEST 8:32 PM EEST
Nautical Twilight 5:49 AM EEST 9:05 PM EEST
Astronomical Twilight 5:15 AM EEST 9:39 PM EEST
Moon 10:30 PM EEST (8/25) 11:26 AM EEST (8/25)
Length of Visible Light 14h 10m
Length of Day
13h 16m
Waning Gibbous, 78% of the Moon is Illuminated
Aug 25
Waning Gibbous
Aug 28
Last Quarter
Sep 5
New
Sep 12
First Quarter
Sep 19
Full

Hourly Weather History & Observations

Time (EEST) Temp. Heat Index Dew Point Humidity Pressure Visibility Wind Dir Wind Speed Gust Speed Precip Events Conditions
12:50 AM 73.4 °F - 51.8 °F 47% 29.89 in - NNW 3.5 mph - N/A   Clear
1:50 AM 73.4 °F - 51.8 °F 47% 29.86 in - North 5.8 mph - N/A   Clear
2:50 AM 73.4 °F - 51.8 °F 47% 29.86 in - Calm Calm - N/A   Clear
3:50 AM 73.4 °F - 51.8 °F 47% 29.86 in - Calm Calm - N/A   Clear
4:50 AM 69.8 °F - 51.8 °F 53% 29.86 in - Calm Calm - N/A   Clear
5:50 AM 71.6 °F - 53.6 °F 53% 29.86 in - West 4.6 mph - N/A   Clear
6:20 AM 71.6 °F - 53.6 °F 53% 29.86 in - West 3.5 mph - N/A   Clear
6:50 AM 71.6 °F - 55.4 °F 57% 29.86 in - Calm Calm - N/A   Clear
7:20 AM 73.4 °F - 55.4 °F 53% 29.86 in - Calm Calm - N/A   Clear
7:50 AM 75.2 °F - 55.4 °F 50% 29.86 in - Calm Calm - N/A   Clear
8:20 AM 78.8 °F - 55.4 °F 44% 29.86 in - Calm Calm - N/A   Clear
8:50 AM 80.6 °F 80.8 °F 57.2 °F 45% 29.86 in - Calm Calm - N/A   Clear
9:20 AM 82.4 °F 82.0 °F 57.2 °F 42% 29.86 in - Calm Calm - N/A   Clear
9:50 AM 82.4 °F 82.0 °F 57.2 °F 42% 29.86 in - Calm Calm - N/A   Clear
10:20 AM 86.0 °F 84.5 °F 55.4 °F 35% 29.86 in - Variable 3.5 mph - N/A   Clear
10:50 AM 87.8 °F 86.1 °F 55.4 °F 33% 29.86 in - South 4.6 mph - N/A   Clear
11:20 AM 89.6 °F 88.1 °F 57.2 °F 33% 29.86 in - South 5.8 mph - N/A   Clear
11:50 AM 89.6 °F 87.7 °F 55.4 °F 31% 29.86 in - SSW 6.9 mph - N/A   Clear
12:20 PM 89.6 °F 87.7 °F 55.4 °F 31% 29.86 in - South 5.8 mph - N/A   Clear
12:50 PM 91.4 °F 89.9 °F 57.2 °F 31% 29.86 in 6.2 mi SSW 9.2 mph - N/A   Partly Cloudy
1:20 PM 91.4 °F 89.9 °F 57.2 °F 31% 29.83 in 6.2 mi SSW 10.4 mph - N/A   Partly Cloudy
1:50 PM 91.4 °F 89.4 °F 55.4 °F 29% 29.83 in 6.2 mi SSW 12.7 mph - N/A   Partly Cloudy
2:20 PM 91.4 °F 89.1 °F 53.6 °F 28% 29.83 in 6.2 mi South 10.4 mph - N/A   Scattered Clouds
2:50 PM 93.2 °F - 51.8 °F 24% 29.83 in 6.2 mi South 12.7 mph - N/A   Mostly Cloudy
3:20 PM 91.4 °F 89.1 °F 53.6 °F 28% 29.83 in 6.2 mi South 12.7 mph - N/A   Mostly Cloudy
4:20 PM 91.4 °F 89.4 °F 55.4 °F 29% 29.83 in 6.2 mi South 11.5 mph - N/A   Mostly Cloudy
4:50 PM 89.6 °F - 51.8 °F 27% 29.83 in 6.2 mi South 11.5 mph - N/A   Mostly Cloudy
5:20 PM 87.8 °F - 51.8 °F 29% 29.83 in 6.2 mi South 11.5 mph - N/A   Mostly Cloudy
5:50 PM 87.8 °F 85.7 °F 53.6 °F 31% 29.83 in - South 9.2 mph - N/A   Clear
6:20 PM 86.0 °F 84.5 °F 55.4 °F 35% 29.83 in - South 10.4 mph - N/A   Clear
6:50 PM 86.0 °F 84.5 °F 55.4 °F 35% 29.86 in - South 8.1 mph - N/A   Clear
7:20 PM 84.2 °F 83.0 °F 55.4 °F 37% 29.86 in - South 5.8 mph - N/A   Clear
7:50 PM 82.4 °F - 51.8 °F 35% 29.86 in - South 5.8 mph - N/A   Clear
8:20 PM 80.6 °F - 51.8 °F 37% 29.86 in - South 4.6 mph - N/A   Clear
8:50 PM 80.6 °F - 50.0 °F 34% 29.86 in - Variable 3.5 mph - N/A   Clear
9:20 PM 80.6 °F - 51.8 °F 37% 29.86 in - Calm Calm - N/A   Clear
9:50 PM 80.6 °F - 51.8 °F 37% 29.86 in - Calm Calm - N/A   Clear
10:20 PM 78.8 °F - 51.8 °F 39% 29.83 in - Calm Calm - N/A   Clear
10:50 PM 75.2 °F - 48.2 °F 38% 29.86 in - Calm Calm - N/A   Clear
11:20 PM 75.2 °F - 48.2 °F 38% 29.86 in - Calm Calm - N/A   Clear
11:50 PM 75.2 °F - 48.2 °F 38% 29.86 in - Calm Calm - N/A   Clear